Showing default

KUIPER-00455, 68949

Orbit data source: Space-Track

KUIPER-00455, 68949 is a payload satellite owned by Kuiper Systems (US) in LEO that was launched on Thu, 30 Apr 2026 UTC via an ARIANE 64 launch vehicle from the French Guiana (FRGUI). Payload-class satellites include a variety of spacecraft equipped with specific instruments for various scientific and technological missions. These include communications satellites like Starlink; space stations such as the ISS; scientific satellites like the Hubble; Earth observation satellites from companies like Planet Labs, Umbra, and HawkEye 360; GPS; miniature CubeSats for education and research; and military/defense satellites.

Loading next visibility...
Identifier
68949, 2026-098AG
Orbit
LEO
Country
Flag of USUS
Related business
Manufacturer
Kuiper Systems
Mission
Operational spacecraft
Bus & Motor
KUIPER, Unknown motor
Mass
~490 kg wet, ~490 kg dry
Launch date (UTC)
2026-04-30 (1 month ago)
Launch vehicle
ARIANE 64
Launch site
French Guiana (FRGUI)
Object type
Payload
Rocket body
Debris
Shape & HBR
Unknown
Radar Cross Section
Large (>1 m²)

Expand to show TLE details & history
Last TLE update: 19 hours ago

TLE from 19 hours ago
0 KUIPER-00455
1 68949U 26098AG  26150.34152109  .00007493  00000-0  26910-3 0  9994
2 68949  51.8754 154.6238 0019478  85.2940 275.0267 15.29515447  4594
Epoch: 2026-05-30T08:11Z
TLE epoch observation values (Epoch: 2026-05-30T08:11:47.422Z)
Latitude
-0.00003°
Longitude
143.81725°
Altitude
476.876 km
Speed
7.629 km/s
True Right ascension
10h 18m 29s
True Declination
0° 00' 00"
Sunlit
Object was in daylight at epoch
Visualization orbit readout
Latitude
Unknown
Longitude
Unknown
Altitude
Unknown
Speed
Unknown
Apparent Right ascension
Unknown
Apparent Declination
Unknown
Sunlit
N/A
Visualization observer readout
Local Sidereal Time
12:22:59
Azimuth
Unknown
Elevation
Unknown
Doppler factor
Unknown
Orbital elements
Apogee altitude
491.079 km
Perigee altitude
464.371 km
Semi-major axis
6,855.862 km
Eccentricity
0.00195
Inclination
51.8754°
RAAN
154.6238°
Arg. of periapsis
85.294°
True anomaly
274.80431°
Mean anomaly
275.0267°
Eccentric anomaly
274.91551°
Mean motion
3.8234 °/min
Orbital period
94.16 mins
BSTAR
0.0002691
Loading maneuver chart data...
Computing Atmospheric mass density...
Loading historical data...
Loading historical data...
Loading historical data...
Loading historical data...
Loading historical data...
Loading historical data...
Loading historical data...

Documentation

Showing up to 5 results
|